[[{"header":{"parameterUnit":"m.s-1","parameterCategory":1,"la1":30.2991,"la2":30.254,"lo1":-89.0895,"lo2":-89.0444,"dy":0.0017,"dx":0.0017,"nx":28,"ny":28,"refTime":"2023-09-26T03:00:00:Z","depth":0,"parameterNumber":2,"parameterNumberName":"U-component_of_WINDS"},"data":[0,0,0,0,0,0,0,0,0,0,0,0,0,0,0,0,0,0,0,0,0,0,0,0,0,0,0,0,0,0,0,0,0,0,0,0,0,0,0,0,0,0,0,0,0,0,0,0,0,0,0,0,0,0,0,0,0,0,-4.1977,-4.1977,0,-4.2004,-4.2004,-4.2005,-4.1862,-4.1858,-4.1854,-4.185,-4.1882,-4.1887,-4.1891,0,0,0,0,0,0,0,0,0,0,0,0,0,-4.1805,-4.1809,-4.1977,-4.1977,-4.1977,-4.2004,-4.2004,-4.2005,-4.1863,-4.1858,-4.1853,-4.1848,-4.1881,-4.1886,-4.1892,0,0,0,0,0,0,0,0,0,0,0,0,0,-4.1861,-4.1811,-4.1977,-4.1909,-4.1904,-4.2004,-4.2004,-4.2005,-4.1864,-4.1858,-4.1851,-4.1846,-4.1879,-4.1886,-4.1892,-4.206,0,0,-4.1914,-4.1917,0,0,0,0,0,0,0,0,-4.1858,-4.1868,-4.1919,-4.1914,-4.1908,-4.1923,-4.1956,-4.2024,-4.1865,-4.1879,-4.185,-4.1843,-4.1901,-4.1906,-4.1925,-4.2061,-4.2063,-4.1915,-4.1919,-4.1922,-4.1924,0,0,0,0,0,0,0,-4.1855,-4.1866,-4.1987,-4.192,-4.1913,-4.188,-4.1881,-4.1968,-4.1925,-4.1877,-4.1867,-4.1872,-4.1897,-4.1918,-4.1924,-4.2063,-4.1914,-4.1921,-4.1925,-4.1928,-4.2341,-4.2347,0,0,0,0,0,0,-4.1859,-4.1863,-4.1987,-4.1988,-4.1867,-4.1888,-4.1889,-4.1925,-4.1923,-4.1917,-4.1877,-4.1865,-4.1909,-4.1916,-4.1925,-4.2122,-4.1922,-4.1929,-4.1933,-4.2334,-4.2342,-4.235,0,0,0,0,0,0,-4.1856,-4.1871,-4.1986,-4.1923,-4.1935,-4.1897,-4.1939,-4.1928,-4.195,-4.1923,-4.1915,-4.1907,-4.1905,-4.1915,-4.2028,-4.2121,-4.1932,-4.1938,-4.2326,-4.2337,-4.2346,-4.2518,0,0,0,0,0,0,-4.1852,-4.1871,-4.1933,-4.1926,-4.1939,-4.2087,-4.1944,-4.1933,-4.1962,-4.1946,-4.1949,-4.1943,-4.1901,-4.2018,-4.2035,-4.2128,-4.1944,-4.2318,-4.2331,-4.2343,-4.2503,-4.2532,-4.2557,0,0,0,0,0,-4.1846,-4.1981,-4.1937,-4.1953,-4.2015,-4.2092,-4.21,-4.2047,-4.197,-4.2033,-4.2016,-4.1943,-4.2108,-4.2031,-4.2048,-4.2145,-4.2311,-4.2327,-4.2342,-4.2491,-4.2527,-4.2556,0,0,0,0,0,0,-4.2001,-4.1978,-4.193,-4.2066,-4.2082,-4.2068,-4.2146,-4.2086,-4.2126,-4.211,-4.2043,-4.2045,-4.217,-4.2168,-4.2082,-4.2308,-4.2197,-4.2216,-4.2304,-4.2338,-4.2364,-4.2362,-4.1949,0,0,0,0,0,-4.2051,-4.2114,-4.2091,-4.2214,-4.2224,-4.2184,-4.2216,-4.2173,-4.2188,-4.2195,-4.2186,-4.2204,-4.226,-4.2299,-4.2348,-4.2502,-4.2502,-4.2578,-4.2604,-4.2627,-4.2645,-4.2728,-4.2762,-4.2399,-4.2399,-4.2399,0,0,-4.2155,-4.2151,-4.2194,-4.2245,-4.2252,-4.2321,-4.2191,-4.2268,-4.2319,-4.2207,-4.2312,-4.2307,-4.2323,-4.2458,-4.2517,-4.246,-4.2745,-4.2646,-4.2664,-4.267,-4.2747,-4.2782,-4.2812,-4.241,-4.2408,-4.2406,0,0,-4.238,-4.2382,-4.2485,-4.2495,-4.2508,-4.2481,-4.2506,-4.2502,-4.2494,-4.2598,-4.2516,-4.2576,-4.2674,-4.2689,-4.271,-4.2943,-4.2878,-4.2961,-4.3102,-4.3184,-4.3213,-4.3238,-4.3323,-4.3354,-4.2979,-4.2979,-4.298,0,-4.2508,-4.2606,-4.2546,-4.2629,-4.2655,-4.2556,-4.2661,-4.2674,-4.2704,-4.2725,-4.2661,-4.2782,-4.2786,-4.2923,-4.2981,-4.3,-4.3028,-4.2961,-4.3213,-4.3238,-4.326,-4.3341,-4.3373,-4.2989,-4.2988,-4.2987,-4.2986,0,-4.2764,-4.2834,-4.2916,-4.2946,-4.2981,-4.3075,-4.303,-4.3073,-4.3029,-4.3009,-4.3118,-4.3119,-4.3169,-4.3198,-4.3155,-4.3331,-4.3296,-4.3224,-4.3111,-4.3306,-4.338,-4.3411,-4.3004,-4.3,-4.2997,-4.2995,0,0,-4.3087,-4.3083,-4.3115,-4.3128,-4.3136,-4.319,-4.328,-4.3328,-4.3367,-4.3391,-4.3466,-4.3552,-4.3486,-4.3509,-4.3468,-4.354,-4.3727,-4.3459,-4.3458,-4.351,-4.3923,-4.3978,-4.4015,-4.3684,-4.3689,-4.3694,-4.3922,0,-4.3308,-4.3461,-4.341,-4.3567,-4.3632,-4.3539,-4.3618,-4.3633,-4.3618,-4.3672,-4.3654,-4.3717,-4.3623,-4.3638,-4.3705,-4.369,-4.3809,-4.3673,-4.3756,-4.3759,-4.3756,-4.4053,-4.4112,-4.4327,-4.3951,-4.3956,-4.3959,0,-4.3586,-4.3622,-4.3785,-4.3783,-4.3808,-4.388,-4.3921,-4.3973,-4.3989,-4.3972,-4.4,-4.3944,-4.4034,-4.3921,-4.4046,-4.3955,-4.3986,-4.3984,-4.3991,-4.3998,-4.3872,-4.407,-4.4394,-4.4428,-4.4004,-4.4,-4.3997,0,-4.3808,-4.3896,-4.4005,-4.4019,-4.402,-4.4073,-4.4076,-4.4085,-4.4118,-4.4154,-4.4174,-4.4221,-4.4247,-4.4285,-4.4244,-4.4165,-4.4377,-4.4259,-4.4368,-4.4369,-4.4417,-4.4415,-4.4753,-4.4435,-4.4435,-4.4434,-4.4434,0,-4.4061,-4.4165,-4.4105,-4.4172,-4.4287,-4.4228,-4.4343,-4.4336,-4.4345,-4.4411,-4.4334,-4.4398,-4.4338,-4.4398,-4.4366,-4.4476,-4.4488,-4.4479,-4.447,-4.4487,-4.4489,-4.4507,-4.4492,-4.4443,-4.4441,-4.4439,-4.4438,0,-4.4328,-4.4292,-4.4405,-4.4396,-4.4397,-4.4482,-4.4475,-4.4538,-4.4517,-4.4602,-4.4618,-4.4586,-4.4652,-4.4614,-4.4682,-4.4661,-4.4804,-4.4774,-4.4799,-4.4792,-4.4903,-4.4894,-4.5266,-4.5313,-4.4964,-4.4967,-4.497,0,-4.4493,-4.457,-4.457,-4.4609,-4.4617,-4.4679,-4.4711,-4.4657,-4.4695,-4.472,-4.4781,-4.484,-4.4884,-4.4994,-4.4978,-4.5029,-4.5001,-4.5128,-4.5008,-4.5024,-4.5005,-4.5001,-4.501,-4.5152,-4.5156,-4.516,-4.5162,0,-4.4789,-4.4768,-4.4817,-4.4862,-4.4903,-4.4935,-4.4962,-4.4998,-4.4944,-4.4991,-4.5056,-4.5091,-4.516,-4.522,-4.5265,-4.527,-4.5209,-4.52,-4.5228,-4.5247,-4.5259,-4.5256,-4.4867,-4.5192,-4.5189,-4.5187,-4.5185,-4.5184,-4.5011,-4.5076,-4.5087,-4.5146,-4.516,-4.5186,-4.5246,-4.5232,-4.5286,-4.5337,-4.5302,-4.5381,-4.5397,-4.545,-4.5463,-4.5525,-4.5474,-4.5515,-4.5525,-4.5537,-4.5553,-4.5248,-4.5533,-4.5532,-4.5531,-4.5531,-4.553,0,-4.5305,-4.5307,-4.5362,-4.5401,-4.5448,-4.5384,-4.5411,-4.5455,-4.5524,-4.5544,-4.5589,-4.5666,-4.5725,-4.5714,-4.5767,-4.5819,-4.5793,-4.5836,-4.5832,-4.5835,-4.5594,-4.5565,-4.5856,-4.5856,-4.5856,-4.5856,-4.5856,-4.5856,-4.5463,-4.5571,-4.5552,-4.5667,-4.5669,-4.5744,-4.5765,-4.5791,-4.5806,-4.5895,-4.5943,-4.5935,-4.5943,-4.5997,-4.6049,-4.6044,-4.6068,-4.6122,-4.6107,-4.5883,-4.5851,-4.582,-4.5793,-4.6127,-4.6127,-4.6343,-4.6345,-4.6346]},{"header":{"parameterUnit":"m.s-1","parameterCategory":1,"la1":30.2991,"la2":30.254,"lo1":-89.0895,"lo2":-89.0444,"dy":0.0017,"dx":0.0017,"nx":28,"ny":28,"refTime":"2023-09-26T03:00:00:Z","depth":0,"parameterNumber":3,"parameterNumberName":"V-component_of_WINDS"},"data":[0,0,0,0,0,0,0,0,0,0,0,0,0,0,0,0,0,0,0,0,0,0,0,0,0,0,0,0,0,0,0,0,0,0,0,0,0,0,0,0,0,0,0,0,0,0,0,0,0,0,0,0,0,0,0,0,0,0,-2.3298,-2.3297,0,-2.3268,-2.3267,-2.3267,-2.3226,-2.3225,-2.3224,-2.3223,-2.3193,-2.3193,-2.3192,0,0,0,0,0,0,0,0,0,0,0,0,0,-2.3318,-2.3318,-2.3298,-2.3297,-2.3297,-2.3268,-2.3267,-2.3267,-2.3226,-2.3225,-2.3224,-2.3223,-2.3193,-2.3193,-2.3192,0,0,0,0,0,0,0,0,0,0,0,0,0,-2.3301,-2.3318,-2.3298,-2.3273,-2.327,-2.3268,-2.3267,-2.3267,-2.3226,-2.3225,-2.3224,-2.3223,-2.3193,-2.3193,-2.3192,-2.3212,0,0,-2.3192,-2.3192,0,0,0,0,0,0,0,0,-2.3302,-2.33,-2.3277,-2.3274,-2.3272,-2.3249,-2.3263,-2.3248,-2.3226,-2.3243,-2.3223,-2.3222,-2.3212,-2.321,-2.3207,-2.3211,-2.3209,-2.3192,-2.3191,-2.3191,-2.3191,0,0,0,0,0,0,0,-2.3303,-2.3301,-2.3286,-2.3276,-2.3273,-2.3263,-2.3259,-2.326,-2.3234,-2.3241,-2.3238,-2.3235,-2.3211,-2.3208,-2.3206,-2.3209,-2.3192,-2.3191,-2.3191,-2.3191,-2.3227,-2.3228,0,0,0,0,0,0,-2.3308,-2.3303,-2.3287,-2.3285,-2.3285,-2.3263,-2.3259,-2.3258,-2.3234,-2.3229,-2.3236,-2.3233,-2.3208,-2.3206,-2.3205,-2.3226,-2.3191,-2.3191,-2.3191,-2.3226,-2.3227,-2.3228,0,0,0,0,0,0,-2.3309,-2.3307,-2.3288,-2.3293,-2.329,-2.3264,-2.3262,-2.3258,-2.3254,-2.323,-2.3225,-2.3238,-2.3208,-2.3205,-2.3211,-2.3225,-2.3191,-2.3191,-2.3224,-2.3226,-2.3227,-2.327,0,0,0,0,0,0,-2.331,-2.3308,-2.3315,-2.3293,-2.329,-2.3294,-2.3263,-2.3258,-2.3254,-2.325,-2.323,-2.3226,-2.3207,-2.3211,-2.321,-2.3224,-2.3191,-2.3223,-2.3225,-2.3227,-2.3267,-2.3273,-2.3277,0,0,0,0,0,-2.3311,-2.3328,-2.3316,-2.3314,-2.3298,-2.3295,-2.3293,-2.3271,-2.3255,-2.3262,-2.3247,-2.3226,-2.3223,-2.3212,-2.3211,-2.3224,-2.3222,-2.3224,-2.3227,-2.3265,-2.3271,-2.3277,0,0,0,0,0,0,-2.3352,-2.3325,-2.3311,-2.3322,-2.3311,-2.3288,-2.3297,-2.3279,-2.3272,-2.3269,-2.3241,-2.3237,-2.3246,-2.3235,-2.3223,-2.3242,-2.3219,-2.3222,-2.3249,-2.3255,-2.326,-2.3263,-2.319,0,0,0,0,0,-2.3362,-2.3362,-2.3339,-2.3351,-2.3346,-2.3322,-2.332,-2.3304,-2.3292,-2.3287,-2.3272,-2.3261,-2.3257,-2.3255,-2.3251,-2.3265,-2.326,-2.3274,-2.3279,-2.3283,-2.3286,-2.3293,-2.3299,-2.3236,-2.3236,-2.3236,0,0,-2.3384,-2.3369,-2.3371,-2.3359,-2.3348,-2.3349,-2.3319,-2.3321,-2.3321,-2.3287,-2.3291,-2.328,-2.3265,-2.3276,-2.3279,-2.3267,-2.3302,-2.3287,-2.329,-2.329,-2.3296,-2.3302,-2.3307,-2.3238,-2.3237,-2.3237,0,0,-2.3424,-2.3412,-2.3421,-2.3412,-2.3397,-2.3381,-2.3383,-2.3363,-2.3354,-2.3358,-2.3332,-2.3332,-2.3326,-2.3317,-2.3312,-2.3348,-2.3329,-2.3347,-2.3375,-2.3382,-2.3387,-2.3391,-2.3404,-2.3409,-2.335,-2.335,-2.335,0,-2.3453,-2.3452,-2.3428,-2.3432,-2.3427,-2.3397,-2.3405,-2.3397,-2.3382,-2.3379,-2.3366,-2.3358,-2.3346,-2.3354,-2.3363,-2.3359,-2.3361,-2.335,-2.3388,-2.3392,-2.3396,-2.3408,-2.3413,-2.3352,-2.3352,-2.3352,-2.3351,0,-2.3489,-2.3489,-2.3498,-2.3484,-2.348,-2.3486,-2.3463,-2.3462,-2.3446,-2.3431,-2.3435,-2.342,-2.3412,-2.3412,-2.3397,-2.3417,-2.3411,-2.3393,-2.337,-2.3404,-2.3415,-2.342,-2.3356,-2.3355,-2.3354,-2.3353,0,0,-2.3554,-2.3526,-2.353,-2.3523,-2.3504,-2.3504,-2.3509,-2.3501,-2.35,-2.3491,-2.3494,-2.349,-2.3474,-2.3468,-2.345,-2.3457,-2.3486,-2.3438,-2.3437,-2.3448,-2.3509,-2.3522,-2.3528,-2.3473,-2.3474,-2.3475,-2.351,0,-2.359,-2.3597,-2.3575,-2.3587,-2.3587,-2.3558,-2.3562,-2.3551,-2.3538,-2.3535,-2.352,-2.3518,-2.3497,-2.3493,-2.3497,-2.3482,-2.3498,-2.3479,-2.3476,-2.3477,-2.3481,-2.3534,-2.3548,-2.3582,-2.3514,-2.3515,-2.3515,0,-2.3634,-2.3626,-2.3639,-2.3619,-2.3618,-2.3622,-2.3613,-2.3612,-2.3598,-2.3588,-2.3581,-2.3561,-2.3564,-2.3542,-2.3546,-2.3533,-2.3531,-2.3523,-2.3523,-2.3523,-2.3498,-2.3535,-2.3592,-2.3598,-2.3522,-2.3521,-2.3521,0,-2.3681,-2.3674,-2.368,-2.3675,-2.3652,-2.3656,-2.3647,-2.3632,-2.3629,-2.3621,-2.3618,-2.3611,-2.3607,-2.3601,-2.358,-2.3565,-2.3586,-2.3562,-2.3578,-2.3578,-2.3584,-2.3584,-2.3642,-2.3582,-2.3582,-2.3582,-2.3581,0,-2.3724,-2.3733,-2.3701,-2.3705,-2.3714,-2.3688,-2.3698,-2.3685,-2.3673,-2.3674,-2.3648,-2.365,-2.3621,-2.3619,-2.3603,-2.3608,-2.3607,-2.3598,-2.3594,-2.3601,-2.3602,-2.3599,-2.3597,-2.3583,-2.3583,-2.3582,-2.3582,0,-2.3778,-2.3757,-2.3762,-2.374,-2.3735,-2.3742,-2.3723,-2.3726,-2.3711,-2.3713,-2.3712,-2.3688,-2.3684,-2.3662,-2.3654,-2.3642,-2.3654,-2.3645,-2.3659,-2.3656,-2.3674,-2.3673,-2.3732,-2.3739,-2.3674,-2.3675,-2.3675,0,-2.3807,-2.3813,-2.3792,-2.3791,-2.3783,-2.3781,-2.3778,-2.3753,-2.375,-2.3735,-2.374,-2.3734,-2.3729,-2.3725,-2.3706,-2.37,-2.369,-2.3712,-2.3689,-2.3696,-2.3691,-2.3691,-2.3692,-2.3717,-2.3718,-2.3718,-2.3719,0,-2.3861,-2.3851,-2.3846,-2.3839,-2.3835,-2.3828,-2.3819,-2.382,-2.3792,-2.3791,-2.3787,-2.3783,-2.3774,-2.3769,-2.3759,-2.3749,-2.373,-2.3726,-2.3729,-2.3737,-2.3745,-2.3741,-2.3673,-2.3725,-2.3724,-2.3724,-2.3724,-2.3723,-2.3904,-2.3908,-2.3894,-2.389,-2.3881,-2.3873,-2.3875,-2.386,-2.3856,-2.3847,-2.3833,-2.3831,-2.3817,-2.3802,-2.3794,-2.3792,-2.3781,-2.3786,-2.3787,-2.3789,-2.3793,-2.3745,-2.379,-2.379,-2.379,-2.379,-2.379,0,-2.3957,-2.3946,-2.3943,-2.3932,-2.3929,-2.3911,-2.39,-2.3899,-2.3898,-2.3887,-2.3882,-2.3877,-2.3872,-2.3854,-2.3846,-2.3849,-2.384,-2.3848,-2.3848,-2.3846,-2.3803,-2.3801,-2.3855,-2.3855,-2.3855,-2.3855,-2.3855,-2.3855,-2.3984,-2.399,-2.3978,-2.3979,-2.3968,-2.3967,-2.3962,-2.3955,-2.3946,-2.3943,-2.3938,-2.3926,-2.3912,-2.3903,-2.3898,-2.3893,-2.3891,-2.3903,-2.3894,-2.3855,-2.3849,-2.3843,-2.3841,-2.3902,-2.3903,-2.3937,-2.3938,-2.3938]}]]